| time (UTC) | temp F | wind direction | speed knots | gust knots | rain 1hr in | rain 24hr in | rain mn in | humidity % | barometer mb |
| 20260506202704 | 73 | 160 | 0.0 | 2.6 | 0.00 | 0.01 | 0.00 | 63 | 1022.3 |
| 20260506202205 | 73 | 129 | 0.0 | 2.6 | 0.00 | 0.01 | 0.00 | 64 | 1022.4 |
| 20260506201704 | 72 | 155 | 0.0 | 1.7 | 0.00 | 0.01 | 0.00 | 65 | 1022.5 |
| 20260506200704 | 72 | 147 | 0.0 | 1.7 | 0.00 | 0.01 | 0.00 | 64 | 1022.6 |
| 20260506200204 | 71 | 144 | 0.0 | 2.6 | 0.00 | 0.01 | 0.00 | 65 | 1022.7 |
| 20260506195704 | 71 | 125 | 0.9 | 2.6 | 0.00 | 0.01 | 0.00 | 65 | 1022.7 |
| 20260506195204 | 70 | 137 | 0.9 | 2.6 | 0.00 | 0.01 | 0.00 | 65 | 1022.7 |
| 20260506194704 | 70 | 132 | 0.9 | 4.3 | 0.00 | 0.01 | 0.00 | 66 | 1022.8 |
| 20260506194204 | 70 | 144 | 0.0 | 5.2 | 0.00 | 0.01 | 0.00 | 67 | 1022.8 |
| 20260506193704 | 70 | 149 | 0.0 | 5.2 | 0.00 | 0.01 | 0.00 | 66 | 1022.8 |
| 20260506193204 | 70 | 136 | 0.0 | 1.7 | 0.00 | 0.01 | 0.00 | 66 | 1022.9 |
| 20260506192703 | 70 | 151 | 0.0 | 1.7 | 0.00 | 0.01 | 0.00 | 67 | 1022.9 |
| 20260506192204 | 69 | 129 | 0.0 | 1.7 | 0.00 | 0.01 | 0.00 | 68 | 1023.0 |
| 20260506191204 | 69 | 159 | 0.0 | 2.6 | 0.00 | 0.01 | 0.00 | 68 | 1023.0 |
| 20260506190703 | 69 | 133 | 0.9 | 2.6 | 0.00 | 0.01 | 0.00 | 68 | 1023.1 |
| 20260506190203 | 69 | 129 | 0.0 | 1.7 | 0.00 | 0.01 | 0.00 | 69 | 1023.1 |
| 20260506184704 | 68 | 130 | 0.0 | 0.9 | 0.00 | 0.01 | 0.00 | 70 | 1023.1 |
| 20260506184204 | 68 | 143 | 0.0 | 1.7 | 0.00 | 0.01 | 0.00 | 69 | 1023.1 |
| 20260506183704 | 67 | 139 | 0.0 | 1.7 | 0.00 | 0.01 | 0.00 | 70 | 1023.2 |
| 20260506183204 | 67 | 133 | 0.9 | 1.7 | 0.00 | 0.01 | 0.00 | 70 | 1023.2 |
| 20260506182703 | 66 | 125 | 0.0 | 1.7 | 0.00 | 0.01 | 0.00 | 71 | 1023.2 |
| 20260506182204 | 66 | 135 | 0.0 | 0.9 | 0.00 | 0.01 | 0.00 | 72 | 1023.3 |
| 20260506181704 | 65 | 138 | 0.0 | 0.9 | 0.00 | 0.01 | 0.00 | 73 | 1023.3 |
| 20260506181203 | 65 | 148 | 0.0 | 0.9 | 0.00 | 0.01 | 0.00 | 73 | 1023.3 |
| 20260506180703 | 64 | 129 | 0.0 | 1.7 | 0.00 | 0.01 | 0.00 | 75 | 1023.3 |
| 20260506180204 | 64 | 129 | 0.0 | 1.7 | 0.00 | 0.01 | 0.00 | 75 | 1023.3 |
| 20260506175704 | 63 | 123 | 0.0 | 1.7 | 0.00 | 0.01 | 0.00 | 75 | 1023.3 |
| 20260506175204 | 63 | 124 | 0.0 | 0.0 | 0.00 | 0.01 | 0.00 | 74 | 1023.4 |
| 20260506174703 | 63 | 126 | 0.0 | 0.0 | 0.00 | 0.01 | 0.00 | 74 | 1023.4 |
| 20260506174203 | 63 | 126 | 0.0 | 0.9 | 0.00 | 0.01 | 0.00 | 74 | 1023.5 |
| 20260506173704 | 63 | 126 | 0.0 | 0.9 | 0.00 | 0.01 | 0.00 | 74 | 1023.5 |
| 20260506173204 | 63 | 129 | 0.0 | 0.9 | 0.00 | 0.01 | 0.00 | 75 | 1023.5 |
| 20260506172704 | 63 | 125 | 0.0 | 0.9 | 0.00 | 0.01 | 0.00 | 76 | 1023.5 |
| 20260506172203 | 62 | 126 | 0.0 | 0.9 | 0.00 | 0.01 | 0.00 | 76 | 1023.5 |
| 20260506171204 | 62 | 128 | 0.0 | 1.7 | 0.00 | 0.01 | 0.00 | 76 | 1023.6 |
| 20260506170703 | 62 | 129 | 0.0 | 1.7 | 0.00 | 0.01 | 0.00 | 76 | 1023.6 |
| 20260506170204 | 62 | 124 | 0.0 | 1.7 | 0.00 | 0.01 | 0.00 | 77 | 1023.7 |
| 20260506165203 | 61 | 126 | 0.0 | 0.0 | 0.00 | 0.01 | 0.00 | 78 | 1023.7 |
| 20260506164705 | 61 | 129 | 0.0 | 0.0 | 0.00 | 0.01 | 0.00 | 79 | 1023.7 |
| 20260506163204 | 60 | 141 | 0.0 | 0.0 | 0.00 | 0.01 | 0.00 | 81 | 1023.6 |
| 20260506162704 | 60 | 141 | 0.0 | 0.0 | 0.00 | 0.01 | 0.00 | 81 | 1023.6 |
| 20260506162204 | 60 | 127 | 0.0 | 0.0 | 0.00 | 0.01 | 0.00 | 82 | 1023.7 |
| 20260506161204 | 59 | 126 | 0.0 | 0.0 | 0.00 | 0.01 | 0.00 | 82 | 1023.6 |
| 20260506160704 | 59 | 126 | 0.0 | 0.0 | 0.00 | 0.01 | 0.00 | 84 | 1023.6 |
| 20260506160203 | 59 | 126 | 0.0 | 0.0 | 0.00 | 0.01 | 0.00 | 84 | 1023.6 |
| 20260506155704 | 58 | 131 | 0.0 | 0.0 | 0.00 | 0.01 | 0.00 | 85 | 1023.7 |
| 20260506155203 | 58 | 131 | 0.0 | 0.0 | 0.00 | 0.01 | 0.00 | 86 | 1023.5 |
| 20260506154704 | 58 | 131 | 0.0 | 0.0 | 0.00 | 0.01 | 0.00 | 88 | 1023.5 |
| 20260506153703 | 57 | 134 | 0.0 | 0.0 | 0.00 | 0.01 | 0.00 | 89 | 1023.5 |
| 20260506153203 | 57 | 134 | 0.0 | 0.0 | 0.00 | 0.01 | 0.00 | 90 | 1023.5 |
| 20260506152204 | 57 | 139 | 0.0 | 0.0 | 0.00 | 0.01 | 0.00 | 91 | 1023.5 |
| 20260506151704 | 57 | 139 | 0.0 | 0.0 | 0.00 | 0.01 | 0.00 | 92 | 1023.4 |
| 20260506150705 | 56 | 139 | 0.0 | 0.0 | 0.00 | 0.01 | 0.00 | 92 | 1023.5 |
| 20260506150206 | 56 | 139 | 0.0 | 0.0 | 0.00 | 0.01 | 0.00 | 92 | 1023.6 |
| 20260506145204 | 55 | 139 | 0.0 | 0.0 | 0.00 | 0.01 | 0.00 | 92 | 1023.4 |
| 20260506144704 | 55 | 126 | 0.0 | 0.0 | 0.00 | 0.01 | 0.00 | 92 | 1023.5 |
| 20260506144203 | 55 | 134 | 0.0 | 0.0 | 0.00 | 0.01 | 0.00 | 92 | 1023.4 |
| 20260506143204 | 55 | 131 | 0.0 | 0.0 | 0.00 | 0.01 | 0.00 | 93 | 1023.5 |
| 20260506142704 | 54 | 131 | 0.0 | 0.0 | 0.00 | 0.01 | 0.00 | 92 | 1023.4 |